FW1128 Weather Reports


time (UTC)temp
F
wind
direction
speed
knots
gust
knots
rain 1hr
in
rain 24hr
in
rain mn
in
humidity
%
barometer
mb
20260507194044 70 270 4.3 9.6 0.00 0.00 0.00 71 1016.6
20260507193024 70 248 5.2 10.4 0.00 0.00 0.00 71 1016.7
20260507192023 70 293 6.1 9.6 0.00 0.00 0.00 70 1016.8
20260507191023 70 293 6.1 12.2 0.00 0.00 0.00 71 1016.9
20260507190023 70 293 6.1 10.4 0.00 0.00 0.00 70 1016.9
20260507185023 70 293 6.1 9.6 0.00 0.00 0.00 70 1017.0
20260507184024 70 293 6.1 12.2 0.00 0.00 0.00 68 1017.1
20260507183044 70 315 5.2 8.7 0.00 0.00 0.00 70 1017.2
20260507182023 70 270 3.5 7.8 0.00 0.00 0.00 71 1017.2
20260507181024 69 315 4.3 8.7 0.00 0.00 0.00 71 1017.2
20260507180103 69 248 3.5 7.0 0.00 0.00 0.00 72 1017.1
20260507175104 69 315 3.5 6.1 0.00 0.00 0.00 73 1017.3
20260507174023 68 293 4.3 9.6 0.00 0.00 0.00 74 1017.4
20260507173023 67 270 2.6 7.0 0.00 0.00 0.00 76 1017.5
20260507172023 67 293 3.5 8.7 0.00 0.00 0.00 76 1017.4
20260507171023 66 315 3.5 7.0 0.00 0.00 0.00 77 1017.4
20260507170023 66 0.0 1.7 0.00 0.00 0.00 80 1017.4
20260507165023 64 293 3.5 5.2 0.00 0.00 0.00 82 1017.5
20260507164024 64 248 1.7 4.3 0.00 0.00 0.00 83 1017.5
20260507163023 64 315 0.9 3.5 0.00 0.00 0.00 85 1017.5
20260507162024 63 0.0 2.6 0.00 0.00 0.00 87 1017.6
20260507161023 62 0.0 0.9 0.00 0.00 0.00 89 1017.6
20260507160023 61 0.0 0.9 0.00 0.00 0.00 91 1017.6
20260507155023 60 0.0 0.9 0.00 0.00 0.00 92 1017.7
20260507154023 60 225 0.9 2.6 0.00 0.00 0.00 92 1017.8
20260507153103 60 0.0 1.7 0.00 0.00 0.00 93 1017.6
20260507152023 59 0.0 0.9 0.00 0.00 0.00 93 1017.7
20260507151023 59 0.0 0.0 0.00 0.00 0.00 93 1017.6
20260507150023 58 0.0 0.9 0.00 0.00 0.00 93 1017.6
20260507145023 58 0.0 0.9 0.00 0.00 0.00 93 1017.4
20260507144023 58 0.0 0.9 0.00 0.00 0.00 93 1017.5
20260507143043 57 0.0 1.7 0.00 0.00 0.00 93 1017.4
20260507142023 57 0.0 0.0 0.00 0.00 0.00 93 1017.4
20260507141023 57 0.0 1.7 0.00 0.00 0.00 93 1017.3
20260507140043 56 0.0 0.0 0.00 0.00 0.00 92 1017.2
20260507135123 56 0.0 1.7 0.00 0.00 0.00 92 1017.2
20260507134023 56 0.0 0.0 0.00 0.00 0.00 92 1017.1
20260507133023 55 0.0 0.0 0.00 0.00 0.00 92 1017.0
20260507132043 55 0.0 0.0 0.00 0.00 0.00 92 1017.0
20260507131023 55 0.0 0.0 0.00 0.00 0.00 92 1017.0
20260507130103 55 0.0 0.0 0.00 0.00 0.00 92 1016.9
20260507125023 55 0.0 0.0 0.00 0.00 0.00 91 1017.0
20260507124023 55 0.0 0.0 0.00 0.00 0.00 91 1016.7
20260507123043 55 0.0 0.0 0.00 0.00 0.00 92 1016.7
20260507122023 55 0.0 0.0 0.00 0.00 0.00 91 1016.6
20260507121023 55 0.0 0.0 0.00 0.00 0.00 91 1016.7
20260507120023 56 0.0 0.0 0.00 0.00 0.00 91 1016.6
20260507115023 56 0.0 0.0 0.00 0.00 0.00 91 1016.5
20260507114023 56 0.0 0.0 0.00 0.00 0.00 91 1016.6
20260507113023 56 0.0 0.0 0.00 0.00 0.00 91 1016.5
20260507112023 56 0.0 0.0 0.00 0.00 0.00 91 1016.6
20260507111043 56 0.0 0.0 0.00 0.00 0.00 91 1016.7
20260507110023 57 0.0 0.0 0.00 0.00 0.00 91 1016.7
20260507105022 57 0.0 0.0 0.00 0.00 0.00 91 1016.8
20260507104022 57 0.0 0.0 0.00 0.00 0.00 91 1016.9
20260507103023 57 0.0 0.0 0.00 0.00 0.00 91 1017.1
20260507102023 57 0.0 0.0 0.00 0.00 0.00 91 1017.1
20260507101023 57 0.0 0.0 0.00 0.00 0.00 90 1017.2
20260507100023 57 0.0 0.0 0.00 0.00 0.00 90 1017.1
20260507095023 57 0.0 0.0 0.00 0.00 0.00 90 1017.2
20260507094023 58 0.0 0.0 0.00 0.00 0.00 90 1017.2
20260507093042 58 0.0 0.0 0.00 0.00 0.00 90 1017.4
20260507092023 58 0.0 0.0 0.00 0.00 0.00 90 1017.5
20260507091023 58 0.0 0.0 0.00 0.00 0.00 90 1017.5
20260507090022 58 0.0 0.0 0.00 0.00 0.00 90 1017.7
20260507085023 58 0.0 0.0 0.00 0.00 0.00 90 1017.9
20260507084022 58 0.0 0.0 0.00 0.00 0.00 90 1017.9
20260507083023 58 0.0 0.0 0.00 0.00 0.00 90 1018.0
20260507082043 59 0.0 0.0 0.00 0.00 0.00 90 1018.1
20260507081022 59 0.0 0.0 0.00 0.00 0.00 89 1018.1
20260507080023 59 0.0 0.0 0.00 0.00 0.00 89 1018.2
20260507075042 59 0.0 0.0 0.00 0.00 0.00 89 1018.2
20260507074043 59 0.0 0.0 0.00 0.00 0.00 89 1018.3
20260507073023 59 0.0 0.0 0.00 0.00 0.00 89 1018.0
20260507072022 59 0.0 0.0 0.00 0.00 0.00 89 1018.3
20260507071023 59 0.0 0.9 0.00 0.00 0.00 88 1018.2
20260507070023 59 0.0 0.0 0.00 0.00 0.00 88 1018.4
20260507065022 60 0.0 0.0 0.00 0.00 0.00 88 1018.4
20260507064022 60 0.0 0.0 0.00 0.00 0.00 88 1018.5
20260507063022 60 0.0 0.0 0.00 0.00 0.00 88 1018.6
20260507062022 60 0.0 0.0 0.00 0.00 0.00 88 1018.6
20260507061022 60 0.0 0.0 0.00 0.00 0.00 87 1018.6
20260507055102 61 0.0 0.0 0.00 0.00 0.00 87 1018.4
20260507054022 61 0.0 0.0 0.00 0.00 0.00 87 1018.5
20260507053102 61 0.0 0.9 0.00 0.00 0.00 87 1018.5
20260507052022 61 0.0 1.7 0.00 0.00 0.00 87 1018.6
20260507051022 61 0.0 1.7 0.00 0.00 0.00 86 1018.6
20260507050022 61 0.0 1.7 0.00 0.00 0.00 86 1018.5
20260507045022 61 0.0 0.9 0.00 0.00 0.00 86 1018.5
20260507044022 61 293 0.9 3.5 0.00 0.00 0.00 86 1018.4
20260507043042 61 315 0.9 1.7 0.00 0.00 0.00 85 1018.3
20260507042022 61 315 0.9 2.6 0.00 0.00 0.00 85 1018.3
20260507041022 62 338 0.9 3.5 0.00 0.00 0.00 85 1018.1
20260507040042 62 338 0.9 3.5 0.00 0.00 0.00 84 1018.2
20260507035023 62 315 1.7 3.5 0.00 0.00 0.00 84 1018.0
20260507034022 62 315 2.6 3.5 0.00 0.00 0.00 83 1017.9
20260507033022 62 315 1.7 4.3 0.00 0.00 0.00 83 1017.6
20260507032022 62 338 2.6 7.8 0.00 0.00 0.00 82 1017.6
20260507031041 63 315 1.7 4.3 0.00 0.00 0.00 82 1017.5
20260507030042 63 315 1.7 5.2 0.00 0.00 0.00 81 1017.5
20260507025042 63 293 1.7 4.3 0.00 0.00 0.00 81 1017.4
20260507024042 63 293 3.5 7.0 0.00 0.00 0.00 79 1017.3
20260507023022 64 315 2.6 6.1 0.00 0.00 0.00 78 1017.3
20260507022022 65 338 3.5 8.7 0.00 0.00 0.00 75 1017.3
20260507021022 66 293 3.5 6.1 0.00 0.00 0.00 74 1017.3
20260507020024 66 315 2.6 5.2 0.00 0.00 0.00 73 1017.4
20260507015024 67 315 3.5 7.8 0.00 0.00 0.00 72 1017.3
20260507014024 67 338 2.6 6.1 0.00 0.00 0.00 72 1017.3
20260507013024 67 315 3.5 7.8 0.00 0.00 0.00 70 1017.2
20260507012044 67 338 4.3 9.6 0.00 0.00 0.00 70 1017.1
20260507011023 68 315 3.5 9.6 0.00 0.00 0.00 67 1017.1
20260507010024 68 315 3.5 8.7 0.00 0.00 0.00 65 1017.1
20260507005024 68 338 5.2 9.6 0.00 0.00 0.00 63 1017.1
20260507004024 69 338 4.3 9.6 0.00 0.00 0.00 65 1017.1
20260507003022 69 23 2.6 8.7 0.00 0.00 0.00 65 1017.0
20260507002104 69 338 3.5 7.8 0.00 0.00 0.00 66 1017.0
20260507001023 69 315 5.2 11.3 0.00 0.00 0.00 65 1017.0
20260507000024 69 293 6.1 11.3 0.00 0.00 0.00 64 1017.0
20260506235044 69 293 4.3 10.4 0.00 0.00 0.00 64 1016.8
20260506234024 70 315 4.3 9.6 0.00 0.00 0.00 64 1016.9
20260506233024 69 315 3.5 10.4 0.00 0.00 0.00 66 1016.9
20260506232024 69 293 5.2 10.4 0.00 0.00 0.00 66 1016.8
20260506231044 69 293 7.0 14.8 0.00 0.00 0.00 66 1016.9
20260506230024 70 293 6.1 11.3 0.00 0.00 0.00 66 1016.9
20260506225023 70 293 7.0 13.0 0.00 0.00 0.00 65 1017.1
20260506224024 70 293 6.1 12.2 0.00 0.00 0.00 65 1017.1
20260506223044 70 315 5.2 11.3 0.00 0.00 0.00 64 1017.2
20260506222024 70 315 5.2 10.4 0.00 0.00 0.00 64 1017.3
20260506221023 70 293 6.1 10.4 0.00 0.01 0.00 63 1017.1
20260506220024 69 293 6.1 11.3 0.00 0.01 0.00 67 1017.4
20260506215024 69 270 6.1 12.2 0.00 0.01 0.00 66 1017.4
20260506214024 69 293 7.8 11.3 0.00 0.01 0.00 65 1017.5
20260506213024 69 293 7.0 13.0 0.00 0.01 0.00 66 1017.7
20260506212044 69 293 7.8 13.0 0.00 0.01 0.00 65 1017.6
20260506211023 68 293 7.8 12.2 0.00 0.01 0.00 65 1017.7
20260506210023 69 293 7.0 13.0 0.00 0.01 0.00 65 1017.8
20260506205024 68 293 7.8 13.9 0.00 0.01 0.00 66 1017.8
20260506204024 69 270 6.1 12.2 0.00 0.01 0.00 66 1017.9
20260506203024 68 315 7.0 12.2 0.00 0.01 0.00 66 1017.9
20260506202023 68 293 8.7 14.8 0.00 0.01 0.00 67 1017.9
20260506201023 69 293 7.8 14.8 0.00 0.01 0.00 65 1017.9
20260506200023 69 293 6.1 13.0 0.00 0.01 0.00 67 1018.1
20260506195023 69 270 7.0 13.9 0.00 0.01 0.00 65 1018.2